Location: Peebles
(55.6412°N, 3.1714°W)
Time: 01:13:34
(UTC+01:00)

deb r/b Ablestar - Pass Details

Date: 03 July 2022
Orbit: 859 x 1154 km, 67.2° (Epoch: 13 August)

Event Time Altitude Azimuth Distance (km) Brightness Sun altitude
Rises 01:13:46 0° 316° (NW) 4,000 ? -11.4°
Reaches altitude 10° 01:16:27 10° 317° (NW) 3,054 ? -11.4°
Maximum altitude 01:23:50 86° 47° (NE) 1,164 ? -11.4°
Drops below altitude 10° 01:31:07 10° 137° (SE) 3,015 ? -11.3°
Enters shadow 01:33:36 - 138° (SE) 3,897 ? -11.3°
